K3RTA-2 Weather Reports


time (UTC)temp
C
wind
direction
speed
KPH
gust
KPH
rain 1hr
cm
rain 24hr
cm
rain mn
cm
humidity
%
barometer
mb
20260504220003 23 163 3.2 12.9 0.00 0.00 0.00 39 1011.4
20260504215503 23 152 1.6 12.9 0.00 0.00 0.00 38 1011.5
20260504215005 23 203 3.2 12.9 0.00 0.00 0.00 37 1011.5
20260504214504 23 238 3.2 12.9 0.00 0.00 0.00 37 1011.6
20260504213504 23 103 1.6 14.5 0.00 0.00 0.00 37 1011.5
20260504213004 23 212 3.2 14.5 0.00 0.00 0.00 37 1011.6
20260504212504 23 177 3.2 12.9 0.00 0.00 0.00 37 1011.6
20260504211504 23 202 4.8 12.9 0.00 0.00 0.00 37 1011.6
20260504211004 23 280 1.6 11.3 0.00 0.00 0.00 37 1011.4
20260504210504 23 190 1.6 12.9 0.00 0.00 0.00 36 1011.5
20260504210004 23 235 3.2 12.9 0.00 0.00 0.00 36 1011.5
20260504205504 23 330 3.2 27.4 0.00 0.00 0.00 36 1011.5
20260504205004 23 205 8.0 27.4 0.00 0.00 0.00 36 1011.7
20260504204503 23 157 3.2 14.5 0.00 0.00 0.00 36 1011.6
20260504204005 23 183 4.8 19.3 0.00 0.00 0.00 36 1011.7
20260504203504 23 132 4.8 19.3 0.00 0.00 0.00 36 1011.6
20260504203004 24 224 4.8 12.9 0.00 0.00 0.00 36 1011.7
20260504202504 23 244 3.2 19.3 0.00 0.00 0.00 36 1011.8
20260504202005 23 247 3.2 19.3 0.00 0.00 0.00 36 1011.8
20260504201504 23 194 4.8 16.1 0.00 0.00 0.00 37 1011.8
20260504201004 23 226 4.8 16.1 0.00 0.00 0.00 37 1011.8
20260504200504 23 53 1.6 12.9 0.00 0.00 0.00 37 1011.8
20260504200003 23 205 3.2 12.9 0.00 0.00 0.00 37 1011.8
20260504195504 23 2 3.2 9.7 0.00 0.00 0.00 37 1011.9
20260504195004 24 226 4.8 14.5 0.00 0.00 0.00 36 1011.9
20260504194504 23 205 8.0 14.5 0.00 0.00 0.00 37 1011.9
20260504194004 23 199 3.2 14.5 0.00 0.00 0.00 36 1012.0
20260504193504 24 183 4.8 11.3 0.00 0.00 0.00 36 1012.1
20260504193004 24 173 3.2 11.3 0.00 0.00 0.00 37 1012.1
20260504192504 24 112 1.6 12.9 0.00 0.00 0.00 37 1012.2
20260504192004 23 98 3.2 12.9 0.00 0.00 0.00 37 1012.2
20260504191504 24 136 1.6 14.5 0.00 0.00 0.00 36 1012.2
20260504191004 23 104 1.6 14.5 0.00 0.00 0.00 36 1012.3
20260504190504 23 146 4.8 14.5 0.00 0.00 0.00 36 1012.4
20260504185504 23 170 6.4 19.3 0.00 0.00 0.00 36 1012.6
20260504185005 23 168 4.8 19.3 0.00 0.00 0.00 36 1012.6
20260504184505 23 282 3.2 19.3 0.00 0.00 0.00 37 1012.5
20260504184005 23 142 3.2 9.7 0.00 0.00 0.00 35 1012.6
20260504183504 23 275 1.6 11.3 0.00 0.00 0.00 37 1012.6
20260504183004 23 254 3.2 12.9 0.00 0.00 0.00 37 1012.7
20260504182504 23 264 1.6 12.9 0.00 0.00 0.00 37 1012.8
20260504182004 23 176 4.8 12.9 0.00 0.00 0.00 36 1012.9
20260504181004 23 161 4.8 12.9 0.00 0.00 0.00 36 1013.1
20260504180503 23 343 3.2 12.9 0.00 0.00 0.00 37 1013.0
20260504175505 23 163 3.2 12.9 0.00 0.00 0.00 37 1013.1
20260504175005 23 211 4.8 12.9 0.00 0.00 0.00 36 1013.1
20260504174504 23 120 3.2 19.3 0.00 0.00 0.00 37 1013.1
20260504174003 23 196 8.0 19.3 0.00 0.00 0.00 36 1013.1
20260504173504 23 118 3.2 19.3 0.00 0.00 0.00 36 1013.2
20260504173005 23 188 4.8 19.3 0.00 0.00 0.00 35 1013.3
20260504172504 23 181 4.8 16.1 0.00 0.00 0.00 36 1013.3
20260504172004 23 21 4.8 14.5 0.00 0.00 0.00 40 1013.4
20260504171504 22 129 3.2 14.5 0.00 0.00 0.00 37 1013.5
20260504171005 22 116 3.2 14.5 0.00 0.00 0.00 37 1013.6
20260504151004 21 221 3.2 11.3 0.00 0.00 0.00 50 1014.4
20260504150504 20 221 1.6 9.7 0.00 0.00 0.00 49 1014.3
20260504141005 18 258 4.8 14.5 0.00 0.00 0.00 58 1014.8
20260504140504 18 247 3.2 11.3 0.00 0.00 0.00 58 1014.9
20260504130503 16 269 3.2 4.8 0.00 0.00 0.00 68 1015.6
20260504110504 10 224 0.0 1.6 0.00 0.00 0.00 85 1016.6
20260504100504 10 255 0.0 1.6 0.00 0.00 0.00 84 1016.4
20260504082004 9 180 1.6 8.0 0.00 0.00 0.00 83 1016.8
20260504081503 9 145 1.6 8.0 0.00 0.00 0.00 83 1016.8
20260504081004 9 171 0.0 9.7 0.00 0.00 0.00 83 1016.8
20260504080504 9 239 1.6 9.7 0.00 0.00 0.00 83 1016.8
20260504050504 5 143 0.0 0.0 0.00 0.00 0.00 77 1016.9
20260504050004 5 142 0.0 0.0 0.00 0.00 0.00 77 1016.7
20260504045504 5 141 0.0 0.0 0.00 0.00 0.00 77 1016.8
20260504045004 5 142 0.0 0.0 0.00 0.00 0.00 77 1016.8
20260504044004 5 142 0.0 0.0 0.00 0.00 0.00 77 1016.7
20260504043504 5 142 0.0 0.0 0.00 0.00 0.00 76 1016.8
20260504043004 6 142 0.0 0.0 0.00 0.00 0.00 76 1016.7
20260504042504 6 142 0.0 0.0 0.00 0.00 0.00 76 1016.7
20260504042004 6 142 0.0 0.0 0.00 0.00 0.00 76 1016.6
20260504041504 6 142 0.0 0.0 0.00 0.00 0.00 75 1016.5
20260504041004 6 139 0.0 0.0 0.00 0.00 0.00 75 1016.4
20260504040505 6 139 0.0 0.0 0.00 0.00 0.00 75 1016.3
20260504040004 6 139 0.0 0.0 0.00 0.00 0.00 75 1016.2
20260504035504 6 139 0.0 0.0 0.00 0.00 0.00 75 1016.3
20260504035004 6 139 0.0 0.0 0.00 0.00 0.00 75 1016.3
20260504034504 6 139 0.0 0.0 0.00 0.00 0.00 75 1016.2
20260504034004 6 139 0.0 0.0 0.00 0.00 0.00 75 1016.1
20260504033505 6 139 0.0 0.0 0.00 0.00 0.00 74 1016.1
20260504033003 6 139 0.0 0.0 0.00 0.00 0.00 74 1016.0
20260504032503 6 139 0.0 0.0 0.00 0.00 0.00 74 1016.1
20260504032005 6 139 0.0 0.0 0.00 0.00 0.00 73 1016.1
20260504031503 6 139 0.0 0.0 0.00 0.00 0.00 74 1016.0
20260504031004 6 139 0.0 0.0 0.00 0.00 0.00 74 1016.0
20260504030504 6 139 0.0 0.0 0.00 0.00 0.00 74 1016.0
20260504030004 6 139 0.0 0.0 0.00 0.00 0.00 73 1016.1
20260504025504 6 139 0.0 0.0 0.00 0.00 0.00 73 1016.1
20260504024503 6 139 0.0 0.0 0.00 0.00 0.00 73 1016.0
20260504024005 6 139 0.0 0.0 0.00 0.00 0.00 73 1016.0
20260504023504 6 139 0.0 0.0 0.00 0.00 0.00 72 1016.0
20260504022504 6 139 0.0 0.0 0.00 0.00 0.00 72 1016.0
20260504022005 6 139 0.0 0.0 0.00 0.00 0.00 72 1016.0
20260504021504 7 139 0.0 0.0 0.00 0.00 0.00 71 1016.1
20260504021004 7 139 0.0 0.0 0.00 0.00 0.00 71 1016.0
20260504020004 7 139 0.0 0.0 0.00 0.00 0.00 70 1015.8
20260504015505 7 144 0.0 0.0 0.00 0.00 0.00 70 1015.8
20260504014504 7 144 0.0 0.0 0.00 0.00 0.00 69 1015.8
20260504014005 7 144 0.0 0.0 0.00 0.00 0.00 68 1015.7
20260504013004 7 134 0.0 0.0 0.00 0.00 0.00 67 1015.7
20260504012503 7 133 0.0 0.0 0.00 0.00 0.00 67 1015.6
20260504012004 8 133 0.0 0.0 0.00 0.00 0.00 66 1015.6
20260504011504 8 133 0.0 0.0 0.00 0.00 0.00 65 1015.6
20260504010504 8 133 0.0 0.0 0.00 0.00 0.00 64 1015.4
20260504010004 8 113 0.0 0.0 0.00 0.00 0.00 64 1015.4
20260504005004 9 113 0.0 0.0 0.00 0.00 0.00 62 1015.3
20260504004504 9 113 0.0 0.0 0.00 0.00 0.00 61 1015.3
20260504003004 10 103 0.0 0.0 0.00 0.00 0.00 56 1015.0
20260504002505 10 103 0.0 0.0 0.00 0.00 0.00 55 1014.9
20260504002004 11 103 0.0 0.0 0.00 0.00 0.00 54 1014.8
20260504001504 11 103 0.0 0.0 0.00 0.00 0.00 53 1014.8
20260504001004 11 103 0.0 0.0 0.00 0.00 0.00 52 1014.8
20260504000504 11 103 0.0 0.0 0.00 0.00 0.00 51 1014.7
20260503235505 12 119 0.0 0.0 0.00 0.00 0.00 49 1014.8
20260503234504 12 119 0.0 1.6 0.00 0.00 0.00 48 1014.7
20260503234004 12 106 0.0 1.6 0.00 0.00 0.00 47 1014.7
20260503233504 13 65 0.0 1.6 0.00 0.00 0.00 46 1014.7
20260503233004 13 84 0.0 4.8 0.00 0.00 0.00 46 1014.6
20260503232504 13 229 0.0 4.8 0.00 0.00 0.00 45 1014.6
20260503231004 13 25 1.6 4.8 0.00 0.00 0.00 45 1014.6
20260503230504 13 256 1.6 3.2 0.00 0.00 0.00 43 1014.4
20260503225505 13 54 0.0 4.8 0.00 0.00 0.00 44 1014.5
20260503225004 14 347 1.6 9.7 0.00 0.00 0.00 45 1014.4
20260503224504 14 13 1.6 9.7 0.00 0.00 0.00 44 1014.3
20260503224004 14 80 0.0 4.8 0.00 0.00 0.00 43 1014.3
20260503223504 14 355 1.6 4.8 0.00 0.00 0.00 42 1014.4
20260503223004 14 105 1.6 4.8 0.00 0.00 0.00 42 1014.3
20260503222504 14 66 0.0 4.8 0.00 0.00 0.00 42 1014.3
20260503222005 14 308 1.6 16.1 0.00 0.00 0.00 41 1014.2
20260503221004 15 343 1.6 14.5 0.00 0.00 0.00 40 1014.4
20260503220504 15 11 3.2 19.3 0.00 0.00 0.00 39 1014.4